Погода в Софиевке

Украина / Запорожская область     48°02′03″N   35°57′28″E
темп.,
°C
ветер,
м/с
пор.,
м/с
влажн.,
%
обл.,
%
осадки,
мм/ч
давл.,
гПа
погр.,
м
19 сентября, вс
вс1900:00+16ююв51278100 0.0 1010361
03:00+17ююв51166100 0.0 1009472
06:00+18ююв51184100 0.1 1008590
09:00+18ююз5884100 0.8 1008673
12:00+20ююз567499 2.8 1008920
15:00+24юз464541 3.3 10071982
18:00+22юз464463 0.0 1007179
21:00+17сз22605 0.0 100828
20 сентября, пн
пн2000:00+17ююз346034 0.0 100874
03:00+15зюз497430 0.0 1008175
06:00+13з48875 0.0 1009243
09:00+14з68545 0.0 1011681
12:00+19зюз793917 0.0 10111489
15:00+19зюз9124162 0.0 10112015
18:00+17з694363 0.0 10111504
21:00+12зсз3859100 0.0 1013286
21 сентября, вт
вт2100:00+10з226830 0.0 101319
03:00+9зюз347396 0.0 1014109
06:00+9з3577100 0.0 1013128
09:00+11з6759100 0.0 1014827
12:00+14з684217 0.0 10141515
15:00+14зсз884050 0.0 10131784
18:00+11зсз776199 0.0 1015896
21:00+8зсз5774100 0.0 1016708
22 сентября, ср
ср2200:00+8зсз5778100 0.0 1017714
03:00+7зсз5780100 0.0 1016752
06:00+7з4681100 0.0 1016702
09:00+8з4578100 0.0 1017652
12:00+9з4571100 0.0 1016948
15:00+10зсз3467100 0.1 1016890
18:00+9зсз1263100 0.0 1016592
21:00+9ю1165100 0.0 101623
23 сентября, чт
чт2300:00+9ююз1166100 0.0 101522
03:00+9в1167100 0.0 101490
06:00+8св1272100 0.0 1014163
09:00+9ссв1268100 0.1 1014545
12:00+12с225798 0.1 10131150
15:00+11с3360100 0.1 1013954
18:00+10ссз4567100 0.0 1014550
21:00+9с2369100 0.0 1015134